Location: Beaver Brook Station
(42.3793°N, 71.2203°W)
Time: 01:20:58
(UTC+00:00)

USA 307 - Pass Details

Date: 29 October 2020
Orbit: 569 x 579 km, 54.0° (Epoch: 23 November)

Event Time Altitude Azimuth Distance (km) Brightness Sun altitude
Rises 23:28:07 0° 309° (NW) 2,787 7.2 -20.2°
Reaches altitude 10° 23:30:23 10° 310° (NW) 1,884 6.2 -20.6°
Maximum altitude 23:34:40 78° 36° (NE) 589 2.8 -21.4°
Enters shadow 23:35:05 69° 94° (E) 614 2.7 -21.5°
